This demonstration page uses our WeatherBlox Daily Observations layout. Learn more.

Left ArrowRight Arrow

39.08367, -84.50855

Hourly Observations for March 5, 2015

Temp ( °F °C ) Dew Point ( °F °C ) Humidity (%) Winds ( mph kmh ) Pressure ( in mb ) Visibility ( mi km ) Precip ( " mm )
12:53 am 00:53 Cloudy 23 -5 13 -10.6 65 65 N 14 22 30.26 1025 10 16.0934 N/A
1:53 am 01:53 Cloudy 22 -5.6 13 -10.6 68 68 N 10 17 30.27 1025 10 16.0934 N/A
2:53 am 02:53 Cloudy 21 -6.1 8 -13.3 57 57 N 14 22 30.3 1026 10 16.0934 N/A
3:47 am 03:47 Cloudy with Light Snow 19 -7 10 -12 68 68 NNE 15 24 30.33 1027 2.5 4.02335 N/A
3:53 am 03:53 Cloudy with Light Snow 19 -7.2 12 -11.1 74 74 N 12 19 30.31 1026 1.5 2.41401 N/A
4:32 am 04:32 Cloudy with Light Snow 18 -8 14 -10 86 86 NNE 8 13 30.33 1027 1.5 2.41401 N/A
4:53 am 04:53 Cloudy with Light Snow 18 -7.8 13 -10.6 81 81 NNE 8 13 30.31 1027 2 3.21868 N/A
5:03 am 05:03 Cloudy with Light Snow 18 -8 12 -11 79 79 NE 8 13 30.33 1027 4 6.43736 N/A
5:53 am 05:53 Cloudy 19 -7.2 11 -11.7 71 71 ENE 3 6 30.33 1027 10 16.0934 N/A
6:18 am 06:18 Cloudy with Light Snow 18 -8 12 -11 79 79 NNE 8 13 30.36 1028 4 6.43736 N/A
6:29 am 06:29 Cloudy with Light Snow 18 -7.8 12 -11.1 77 77 NNE 10 17 30.36 1028 2 3.21868 N/A
6:50 am 06:50 Cloudy with Light Snow 18 -8 12 -11 79 79 N 6 9 30.36 1028 3 4.82802 N/A
6:53 am 06:53 Cloudy with Light Snow 18 -7.8 13 -10.6 81 81 NNE 7 11 30.34 1027 3 4.82802 N/A
7:15 am 07:15 Cloudy with Light Snow 18 -7.8 14 -10 84 84 NNE 6 9 30.36 1028 1.5 2.41401 N/A
7:37 am 07:37 Cloudy with Light Snow 18 -7.8 14 -10 84 84 NNE 5 7 30.36 1028 3 4.82802 N/A
7:53 am 07:53 Cloudy 18 -7.8 14 -10 84 84 N N/A 30.35 1028 10 16.0934 N/A
8:53 am 08:53 Cloudy 19 -7.2 9 -12.8 65 65 N 7 11 30.41 1030 10 16.0934 N/A
9:53 am 09:53 Cloudy 20 -6.7 7 -13.9 57 57 NNE 10 17 30.37 1028 10 16.0934 N/A
10:53 am 10:53 Cloudy 20 -6.7 3 -16.1 48 48 N 10 17 30.4 1029 10 16.0934 N/A
11:53 am 11:53 Cloudy 21 -6.1 5 -15 50 50 N 13 20 30.42 1030 10 16.0934 N/A
12:53 pm 12:53 Cloudy 22 -5.6 6 -14.4 50 50 N 13 20 30.43 1030 10 16.0934 N/A
1:53 pm 13:53 Cloudy 23 -5 5 -15 46 46 N 15 24 30.43 1030 10 16.0934 N/A
2:53 pm 14:53 Mostly Sunny 24 -4.4 6 -14.4 46 46 NNW 8 13 30.43 1031 10 16.0934 N/A
3:53 pm 15:53 Sunny 24 -4.4 5 -15 44 44 NW 10 17 30.45 1031 10 16.0934 N/A
4:53 pm 16:53 Partly Cloudy 24 -4.4 5 -15 44 44 N 12 19 30.49 1033 10 16.0934 N/A
5:53 pm 17:53 Partly Cloudy 22 -5.6 5 -15 48 48 N 9 15 30.51 1033 10 16.0934 N/A
6:53 pm 18:53 Clear 20 -6.7 4 -15.6 50 50 N 7 11 30.54 1034 10 16.0934 N/A
7:53 pm 19:53 Clear 19 -7.2 4 -15.6 51 51 N 5 7 30.56 1035 10 16.0934 N/A
8:53 pm 20:53 Clear 16 -8.9 7 -13.9 67 67 N 3 6 30.59 1036 10 16.0934 N/A
9:53 pm 21:53 Clear 14 -10 9 -12.8 80 80 N N/A 30.6 1036 10 16.0934 N/A
10:53 pm 22:53 Clear 10 -12.2 6 -14.4 84 84 N N/A 30.61 1037 10 16.0934 N/A
11:53 pm 23:53 Clear 8 -13.3 6 -14.4 92 92 ENE 3 6 30.6 1036 8 12.87472 N/A

Powered by AerisWeather